Probability
0 0 0 0 0 0 0 0 0 0 0 0 0 0 0 0 0 1 2 1 2 5 7 10 12 11 10 11 12 12 14 17 18 15 11 11 11 10 9 9 8 6 5 4 3 2 2 2 3
0 0 0 0 0 0 0 0 0 0 0 0 0 0 0 0 0 1 1 1 2 5 9 13 14 12 11 13 13 13 15 17 18 16 14 14 14 12 10 10 9 8 7 6 4 4 4 5 4
0 0 0 0 0 0 0 0 0 0 0 0 0 0 0 0 0 0 1 2 4 7 11 15 16 13 11 13 14 15 16 18 19 19 19 19 17 15 12 12 11 10 8 6 5 5 5 5 5
0 0 0 0 0 0 0 0 0 0 0 0 0 0 0 0 0 0 1 4 6 8 11 13 13 10 9 12 14 16 17 17 19 21 22 22 21 18 15 13 11 9 7 5 4 4 4 3 2
0 0 0 0 0 0 0 0 0 0 0 0 0 0 0 1 1 1 3 5 7 9 10 11 11 9 8 12 15 16 16 17 18 20 23 24 22 20 17 13 10 9 7 6 5 5 4 3 2
0 0 0 0 0 0 1 0 0 0 0 0 0 0 0 1 2 2 4 5 6 8 10 10 10 9 9 13 15 15 15 16 17 18 20 21 22 21 16 11 9 9 9 9 8 7 6 5 4
0 0 0 0 0 0 1 1 0 1 1 0 0 0 0 1 2 4 5 5 5 7 9 9 8 9 10 12 14 13 13 13 14 15 16 17 18 18 15 11 9 10 10 11 10 8 7 6 6
0 0 0 0 0 0 0 1 1 1 1 0 1 1 1 2 3 5 8 7 5 6 7 7 8 8 9 10 12 12 10 10 10 12 14 14 13 12 11 10 10 11 12 11 10 7 6 7 7
0 0 0 0 0 0 0 0 0 0 0 1 2 2 3 4 4 6 8 8 7 6 6 6 7 8 8 9 12 12 9 7 7 9 11 11 9 9 9 11 14 14 13 12 10 8 7 6 6
0 0 0 0 0 0 0 0 0 0 0 2 3 4 4 5 4 4 6 8 9 8 7 5 6 7 8 9 12 13 12 9 7 7 9 10 10 10 10 14 17 17 16 14 12 10 8 6 5
0 0 0 0 0 0 0 0 0 0 1 2 3 3 4 5 4 3 4 7 9 9 7 5 6 8 10 11 13 15 15 14 11 10 10 12 13 13 14 16 18 19 17 16 14 11 8 6 6
1 1 0 0 0 0 0 0 0 1 2 3 2 2 5 7 5 4 5 7 9 8 7 6 8 11 13 15 15 14 14 15 15 13 12 14 14 15 16 17 18 18 18 17 15 11 8 7 6
2 2 1 0 0 0 0 1 1 2 3 3 3 2 5 6 5 4 5 6 7 6 6 6 8 12 14 16 16 15 14 14 14 13 12 12 13 14 16 17 17 17 17 16 14 12 9 8 7
3 3 2 1 1 1 1 2 3 3 3 3 3 3 3 3 4 5 5 5 5 4 5 6 8 10 10 11 12 13 14 14 12 12 11 10 11 14 17 17 16 15 15 15 14 13 12 10 8
2 3 3 3 2 2 2 3 3 3 2 3 4 3 1 0 2 4 6 6 4 4 5 7 8 8 8 7 7 9 11 11 11 10 10 10 10 13 16 16 15 14 15 15 14 13 12 11 10
1 1 2 3 2 2 2 3 3 2 2 3 5 5 2 0 1 4 8 8 7 6 8 9 9 9 9 7 6 7 8 8 8 7 8 8 9 10 12 13 13 13 14 15 14 11 11 12 12
0 0 1 2 2 2 3 3 4 3 2 4 7 6 3 1 1 5 10 11 9 10 12 12 11 11 11 9 8 8 9 9 6 5 5 7 8 8 9 11 13 13 13 13 13 11 10 11 13
0 0 0 1 2 3 3 4 4 2 2 4 6 5 3 2 3 6 10 11 11 11 13 14 13 14 14 12 10 10 12 11 8 5 6 8 9 9 9 11 13 13 13 13 12 11 9 10 11
0 0 0 1 2 2 2 3 3 2 2 3 5 4 4 4 4 6 9 11 11 11 12 14 14 15 16 15 15 15 14 14 11 8 7 9 10 10 10 11 12 13 13 12 12 10 9 8 8
0 0 0 1 1 1 1 1 2 2 1 2 3 3 4 4 5 6 7 9 11 12 12 13 14 15 16 17 18 18 17 15 13 11 9 9 9 9 9 10 11 12 13 12 12 11 9 8 8
0 0 0 0 0 0 0 0 2 2 2 1 2 2 3 3 3 4 5 7 8 11 12 12 13 13 14 15 17 18 18 16 15 13 12 10 9 8 8 8 9 10 11 12 12 11 9 8 8
0 0 0 0 0 0 0 0 1 2 2 2 2 2 2 1 1 2 4 5 7 9 11 12 12 12 12 12 14 16 16 14 14 14 13 11 9 7 7 7 8 8 9 10 10 10 8 7 7
0 0 0 0 0 0 0 0 0 1 2 3 3 3 2 1 0 2 4 6 7 8 10 12 12 11 11 12 13 14 13 12 12 13 13 12 11 9 7 7 7 7 7 7 8 8 6 5 5
0 0 0 0 0 0 0 0 0 0 1 2 3 3 2 1 0 2 5 7 9 8 9 10 10 9 10 11 12 12 12 11 11 12 12 12 11 10 8 7 7 8 8 8 7 7 6 5 5
0 0 0 0 0 0 0 0 0 0 0 1 2 3 2 1 0 2 6 9 10 8 7 7 8 8 8 10 10 10 10 9 10 10 10 10 10 8 7 6 6 8 9 9 8 8 7 6 6
0 0 0 0 0 0 0 0 0 1 1 1 2 3 3 1 0 1 4 8 8 6 6 6 7 7 8 9 9 8 8 7 7 7 8 8 7 6 6 5 5 6 7 8 8 8 7 6 6
1 0 0 0 0 0 1 1 2 2 2 2 2 4 4 2 1 0 2 4 4 3 3 5 5 6 7 8 8 7 7 7 7 6 6 6 5 5 5 4 4 4 5 5 6 6 5 4 4
1 0 0 0 0 0 1 2 3 4 3 2 2 3 4 3 2 0 1 2 1 1 1 2 2 3 4 5 6 6 6 6 7 6 4 4 4 4 4 3 4 4 4 4 5 5 4 4 4
1 1 1 1 0 0 1 2 3 3 2 2 2 3 4 3 1 0 0 1 1 0 0 0 0 1 2 3 4 4 4 4 4 3 3 3 3 3 3 3 3 4 3 4 5 6 6 6 6
2 2 2 2 1 1 1 2 2 2 1 2 2 3 4 4 1 0 0 0 0 0 0 0 0 0 1 3 4 3 3 3 2 1 2 3 3 3 3 3 3 3 3 4 6 6 6 6 6
Wind_Speed
10 8 6 6 8 5 3 4 3 3 3 4 3 3 4 6 6 6 6 6 7 9 10 11 9 8 7 7 7 8 8 8 8 8 9 9 9 8 8 8 8 8 8 8 9 8 8 8 8
6 6 7 7 7 2 5 4 3 4 4 2 1 1 2 4 5 5 5 6 7 9 9 9 10 8 7 7 7 8 8 8 8 8 8 8 8 8 8 8 8 8 8 8 7 7 7 7 7
6 7 7 6 3 1 4 4 4 3 2 0 1 2 3 4 4 4 5 7 8 8 8 10 10 8 7 7 7 7 7 7 8 8 8 8 8 7 7 7 7 7 7 7 7 6 5 6 6
6 7 7 6 1 4 2 3 3 2 2 1 0 2 4 4 2 4 7 7 8 8 8 11 9 8 7 6 6 7 7 7 7 7 8 7 7 7 7 7 7 6 6 7 7 6 6 5 5
6 6 7 4 2 2 1 1 1 1 1 1 0 1 4 5 4 6 7 7 7 8 8 11 9 8 7 6 6 6 6 7 7 7 7 7 7 6 6 7 6 6 6 6 7 6 6 6 6
6 6 6 3 3 2 2 2 2 1 2 2 1 1 4 5 5 5 6 7 7 7 8 10 10 8 7 6 6 6 6 6 6 6 6 6 6 6 6 6 6 6 6 6 6 6 6 6 6
6 5 4 2 2 3 2 1 1 0 1 2 0 1 4 5 4 5 5 5 6 6 6 8 9 9 8 6 6 5 5 5 5 5 6 6 6 6 6 6 6 6 5 6 6 6 6 6 6
5 5 5 3 3 2 3 2 0 2 1 2 1 1 3 5 5 5 5 5 5 5 5 6 6 6 6 7 7 6 5 5 5 5 6 6 7 7 8 8 6 6 6 6 5 5 5 5 6
6 7 4 1 1 1 3 3 1 1 2 2 1 2 5 8 7 6 6 5 5 5 5 5 5 5 4 5 6 7 7 7 6 6 7 7 6 6 7 6 6 6 6 6 6 6 6 6 7
6 7 1 3 3 2 1 3 2 4 4 4 4 4 6 9 8 7 6 6 6 6 5 4 4 4 4 3 4 4 4 5 5 4 5 5 3 3 3 5 6 6 6 7 7 6 7 9 7
5 4 2 2 2 2 2 2 3 5 3 2 2 5 8 8 8 7 5 4 5 5 5 4 4 4 3 3 3 2 2 2 4 4 3 3 3 3 3 3 5 6 7 6 6 8 7 6 4
4 3 3 3 2 3 3 2 2 3 3 2 0 4 8 8 7 6 5 5 5 5 5 4 4 4 3 2 2 2 2 2 2 3 3 3 2 2 2 2 2 3 3 3 4 3 4 5 5
6 3 2 3 4 3 3 3 3 2 0 1 2 5 8 8 6 5 4 4 5 5 4 4 4 4 3 2 2 2 2 2 2 2 2 2 2 2 2 2 2 3 2 3 3 3 3 4 5
3 3 4 4 3 3 4 3 4 2 2 2 4 5 7 7 6 6 5 4 4 4 4 3 4 4 3 3 2 2 2 2 2 2 2 2 1 1 2 2 2 2 2 2 3 3 3 4 4
4 6 6 5 4 3 4 5 5 3 4 3 4 4 5 5 6 5 4 4 4 4 4 4 4 4 3 3 3 2 1 2 2 1 2 1 1 1 2 2 2 2 2 2 3 3 3 4 4
8 9 7 5 4 3 6 5 2 4 5 5 4 4 5 5 6 5 4 4 4 4 4 3 3 3 3 2 2 1 1 1 1 1 1 1 1 1 2 2 2 2 3 3 3 3 4 3 4
9 9 6 4 4 3 6 6 1 4 6 5 4 4 4 5 6 5 5 5 4 4 3 3 2 3 3 2 2 1 1 1 1 1 1 1 2 2 2 2 2 3 3 3 4 3 3 4 4
6 7 6 4 2 4 7 7 3 5 5 5 5 5 5 5 5 5 5 5 4 4 3 3 3 3 3 2 2 1 2 2 1 1 1 1 2 2 3 3 2 3 3 3 3 3 3 4 4
7 8 7 4 2 5 7 6 4 3 5 5 5 5 6 5 5 5 5 5 4 4 3 3 3 3 3 2 2 2 2 1 1 1 1 1 2 2 3 3 2 3 2 3 3 3 4 4 3
9 9 7 4 1 5 6 6 4 3 4 4 4 6 6 6 5 6 5 5 5 4 4 4 4 3 3 2 1 1 1 1 1 0 1 1 2 2 2 2 3 2 2 3 2 3 4 3 3
9 9 7 5 3 6 6 7 4 3 3 3 4 5 5 5 6 6 6 5 5 4 4 3 3 3 3 2 2 2 2 2 1 1 1 1 2 2 2 2 3 2 3 2 2 3 4 4 3
8 5 5 6 7 4 5 6 2 4 4 4 4 4 5 5 6 6 6 6 5 4 4 3 3 3 3 3 2 3 2 2 1 1 1 1 2 2 2 2 2 2 3 2 3 2 3 4 4
6 3 5 7 8 7 7 8 2 3 3 3 4 4 4 5 5 5 5 5 4 4 3 3 3 2 2 2 2 3 2 2 1 1 1 2 2 2 2 2 2 2 3 2 2 3 4 4 4
4 5 6 8 8 8 5 7 2 1 2 0 3 4 4 4 5 5 4 4 3 3 3 3 3 2 2 2 2 2 2 2 2 2 2 2 1 1 2 2 2 3 2 2 3 3 4 4 4
8 8 6 7 7 4 1 5 1 3 3 1 2 3 4 4 4 5 5 4 3 3 2 2 3 2 2 2 2 2 2 3 3 3 2 2 2 1 1 2 2 3 3 3 3 3 3 4 4
9 9 7 6 5 2 3 4 2 4 3 3 3 4 4 4 4 4 4 3 3 2 1 2 2 2 2 2 2 2 3 3 2 2 2 2 2 1 1 2 2 2 3 2 2 3 3 2 3
8 9 7 9 9 7 3 2 4 4 3 3 3 4 5 5 4 4 4 3 3 2 1 1 1 2 2 2 2 3 2 2 2 2 3 2 1 1 1 1 1 2 2 2 2 2 2 2 3
7 5 5 8 7 7 5 4 1 3 2 2 2 3 4 4 4 4 4 4 3 3 2 2 1 1 1 2 2 1 2 2 2 2 1 1 1 0 1 1 1 1 2 2 2 2 1 2 2
8 8 8 7 7 8 6 0 4 2 2 2 2 2 3 4 4 4 4 4 3 3 3 2 2 1 1 1 1 0 0 0 1 1 1 1 1 1 1 1 1 1 1 1 2 2 2 2 2
8 8 8 8 7 7 7 1 6 4 3 3 3 3 3 3 4 4 4 4 4 3 3 3 2 2 1 1 1 1 1 0 0 0 0 1 1 1 1 1 1 1 1 1 2 3 3 3 3
Wind_Direction
203 206 223 235 236 220 98 89 71 71 56 44 24 352 5 6 357 38 86 123 133 136 134 147 145 146 148 146 141 143 143 144 145 147 150 151 151 153 155 155 151 151 152 152 151 152 153 150 147
203 207 228 238 253 187 98 84 76 55 56 48 40 7 23 57 48 79 117 128 141 139 145 146 140 151 150 146 141 139 142 145 146 150 153 155 155 154 155 157 158 157 156 154 151 153 151 148 147
209 231 252 246 265 20 83 85 74 75 89 357 55 31 24 54 77 94 113 141 146 143 146 134 146 150 148 144 142 143 143 147 150 152 153 154 157 158 159 156 156 158 159 154 153 155 154 156 154
222 222 235 247 152 57 45 77 88 107 116 116 131 106 90 61 57 98 128 148 150 152 153 135 150 150 146 144 144 146 149 150 152 154 153 153 154 158 162 162 162 162 161 161 162 163 168 170 170
239 247 232 210 119 84 74 71 155 126 91 93 163 104 106 93 84 114 140 154 157 153 149 139 147 149 147 146 149 148 149 153 155 156 155 156 158 160 164 166 166 168 170 172 173 174 179 175 175
233 244 240 190 125 119 120 152 188 135 100 104 153 158 103 109 115 130 147 156 152 149 148 139 149 154 152 151 155 155 156 159 162 163 165 165 161 162 166 166 167 172 178 180 178 180 184 184 180
261 258 254 207 145 143 99 136 213 2 90 89 163 181 124 128 124 140 147 150 145 146 147 147 155 157 156 156 162 166 168 165 170 172 173 172 174 173 177 173 171 173 178 183 186 188 192 191 190
277 264 233 207 198 126 119 164 260 300 21 83 232 251 120 135 145 148 145 150 145 146 150 146 144 151 163 160 162 173 174 172 174 179 180 183 190 190 188 186 177 180 183 186 188 189 194 194 198
249 247 230 219 243 97 147 207 190 249 191 174 158 38 80 134 153 157 154 157 151 154 160 151 149 153 167 163 154 178 174 175 185 183 184 198 202 196 193 181 169 184 190 195 196 199 202 204 199
242 252 306 352 317 296 218 241 222 216 207 196 159 121 126 149 163 170 169 164 159 157 160 155 155 157 164 160 159 190 190 175 195 188 194 208 204 210 208 144 169 189 197 204 204 207 207 220 203
240 270 346 315 315 296 244 249 242 245 248 243 197 158 156 164 171 180 171 169 162 156 162 162 159 162 171 168 174 186 193 180 193 184 198 209 214 198 206 182 182 195 203 207 189 206 215 219 216
234 252 279 293 306 268 257 253 254 264 311 17 169 159 165 175 177 181 179 170 161 162 167 174 170 169 182 182 179 192 190 185 185 172 205 199 211 208 197 213 207 209 211 211 219 223 223 230 224
219 240 263 262 259 268 254 243 250 257 313 121 147 163 171 176 172 169 167 162 163 165 171 180 171 169 173 180 211 195 194 198 177 187 181 209 212 209 198 206 217 232 219 210 220 223 219 238 239
224 247 253 250 235 221 234 235 230 222 186 168 159 167 172 173 170 163 158 159 162 164 166 174 176 172 177 185 197 202 201 181 197 179 158 213 227 214 222 218 221 243 249 244 237 228 222 232 242
231 238 228 208 209 204 241 234 227 197 178 187 178 166 169 172 172 168 165 168 167 168 165 173 184 169 177 193 203 205 199 179 175 152 157 187 219 212 241 231 231 243 253 240 242 235 234 232 233
222 230 226 181 191 192 247 265 178 167 190 204 193 172 173 174 177 168 165 168 168 166 162 172 191 168 174 185 196 223 200 175 167 162 157 166 211 245 248 242 241 243 246 240 238 239 239 241 246
215 235 239 184 180 206 250 272 212 192 210 209 197 189 182 176 180 173 173 169 165 163 163 162 175 171 177 179 188 197 182 196 193 198 192 171 205 232 246 245 248 245 245 244 246 232 249 247 248
235 248 257 254 204 250 259 266 244 212 218 217 204 196 189 189 181 171 172 169 162 159 161 162 166 168 177 176 184 188 181 192 188 190 176 210 223 234 257 243 235 246 244 249 255 256 252 260 259
272 267 267 273 273 268 263 268 269 223 218 219 214 207 199 191 169 161 165 165 162 163 168 174 177 167 180 182 199 193 191 195 182 177 162 223 237 235 249 265 235 247 247 257 261 259 249 252 257
254 254 255 252 236 264 264 271 261 223 221 224 219 212 203 185 167 163 168 167 169 167 170 175 180 179 192 185 198 206 195 210 183 152 164 222 238 247 242 250 256 250 248 241 253 258 270 271 258
246 255 262 266 255 233 253 249 214 188 195 198 209 214 202 183 175 173 172 169 165 163 167 168 174 190 195 192 190 175 185 211 199 198 199 217 235 245 271 259 262 261 255 249 253 246 249 267 264
242 247 257 255 254 243 252 277 221 185 193 198 202 193 181 174 171 172 170 167 166 164 157 160 174 186 181 195 202 212 220 227 224 231 211 228 234 245 250 258 258 263 264 252 252 261 261 258 260
258 248 244 250 258 265 243 262 237 172 224 205 182 181 171 167 166 166 166 162 161 159 153 152 150 154 167 202 202 224 233 233 231 240 233 249 231 241 254 257 261 259 264 268 275 266 260 256 263
220 219 225 237 245 249 250 259 279 94 317 298 159 163 159 159 158 153 147 145 151 152 156 154 152 157 167 188 200 224 232 241 246 250 257 251 239 239 253 258 263 260 265 253 254 259 250 261 268
217 233 234 225 226 242 159 248 315 47 29 31 136 143 150 148 146 141 138 138 139 150 165 172 165 163 175 188 202 213 229 235 236 253 252 266 266 262 253 265 262 261 256 257 259 255 261 256 256
216 242 264 278 279 271 200 241 98 88 75 75 107 125 131 140 144 142 130 126 129 139 154 172 167 178 186 187 196 209 230 241 245 257 266 259 275 299 296 249 255 264 263 261 258 257 255 260 260
219 234 272 276 275 272 235 201 156 126 109 102 109 122 129 139 143 136 125 118 110 102 95 132 158 187 197 193 197 209 228 249 253 243 248 258 265 255 269 269 265 270 274 277 267 271 270 268 266
254 253 242 255 270 268 244 232 230 147 132 124 126 134 131 140 143 131 123 115 106 101 97 98 141 191 200 192 223 208 222 238 239 245 268 309 310 309 266 276 281 283 272 265 262 258 251 261 270
209 220 242 256 270 276 274 281 68 113 142 141 133 140 140 142 138 132 124 118 114 103 95 95 101 124 146 159 169 194 243 277 251 224 206 219 242 221 248 273 291 278 277 277 266 272 258 253 259
229 234 233 248 250 260 278 93 95 106 118 127 126 125 121 130 133 131 124 116 106 94 82 74 65 68 80 104 118 107 102 90 310 38 211 175 204 241 267 280 284 280 284 290 283 284 276 269 270